AMX671 MGGT-MMMX

Flight info

Callsign AMX671
Flight time N/A
Altitude 38000
Route AUR DCT MODER DCT SJO DCT PIXEN UL423 IZT UT157 LARLO LARLO4A
Aircraft B738/M-SDE2E3FGHIRWXY/LB1

Departure

Time 2026-05-05 01:16
Airport La Aurora International Airport (MGGT)

Arrival

Time N/A
Airport Mexico City Benito Juárez International Airport (MMMX)
Time Latitude Longitude Altitude Speed Heading
2026-05-05 00:51 14.58934 -90.52874 4938 ft 0 kts 287°
2026-05-05 01:06 14.58934 -90.52873 4935 ft 1 kts 287°
2026-05-05 01:07 14.58930 -90.52859 4963 ft 3 kts 286°
2026-05-05 01:07 14.58926 -90.52838 4963 ft 3 kts 275°
2026-05-05 01:07 14.58926 -90.52818 4962 ft 3 kts 261°
2026-05-05 01:07 14.58931 -90.52798 4962 ft 3 kts 247°
2026-05-05 01:08 14.58940 -90.52780 4961 ft 2 kts 236°
2026-05-05 01:08 14.58944 -90.52773 4960 ft 1 kts 235°
2026-05-05 01:08 14.58945 -90.52773 4960 ft 0 kts 235°
2026-05-05 01:10 14.58944 -90.52773 4960 ft 0 kts 229°
2026-05-05 01:10 14.58942 -90.52773 4961 ft 1 kts 197°
2026-05-05 01:10 14.58883 -90.52786 4962 ft 14 kts 194°
2026-05-05 01:10 14.58805 -90.52751 4962 ft 14 kts 122°
2026-05-05 01:11 14.58752 -90.52684 4961 ft 10 kts 185°
2026-05-05 01:11 14.58670 -90.52709 4958 ft 15 kts 198°
2026-05-05 01:11 14.58556 -90.52747 4954 ft 20 kts 198°
2026-05-05 01:11 14.58419 -90.52790 4950 ft 22 kts 197°
2026-05-05 01:12 14.58329 -90.52818 4950 ft 8 kts 197°
2026-05-05 01:12 14.58258 -90.52840 4947 ft 13 kts 196°
2026-05-05 01:12 14.58155 -90.52871 4949 ft 18 kts 196°
2026-05-05 01:12 14.58028 -90.52915 4943 ft 21 kts 200°
2026-05-05 01:13 14.57801 -90.52986 4926 ft 46 kts 190°
2026-05-05 01:13 14.57545 -90.53069 4921 ft 35 kts 199°
2026-05-05 01:13 14.57305 -90.53153 4921 ft 37 kts 198°
2026-05-05 01:13 14.57138 -90.53202 4922 ft 0 kts 197°
2026-05-05 01:14 14.57104 -90.53210 4921 ft 11 kts 184°
2026-05-05 01:14 14.57087 -90.53206 4926 ft 1 kts 146°
2026-05-05 01:14 14.57082 -90.53196 4926 ft 3 kts 107°
2026-05-05 01:14 14.57089 -90.53154 4926 ft 9 kts 50°
2026-05-05 01:15 14.57163 -90.53123 4919 ft 14 kts 17°
2026-05-05 01:15 14.57485 -90.53019 4921 ft 92 kts 17°
2026-05-05 01:15 14.58342 -90.52724 4954 ft 165 kts 21°
2026-05-05 01:15 14.59579 -90.52312 5350 ft 200 kts 18°
2026-05-05 01:16 14.60931 -90.52112 6465 ft 196 kts 351°
2026-05-05 01:16 14.62169 -90.52784 7192 ft 224 kts 313°
2026-05-05 01:16 14.62883 -90.54379 7545 ft 260 kts 286°
2026-05-05 01:16 14.63148 -90.56152 8809 ft 253 kts 270°
2026-05-05 01:17 14.62737 -90.57981 9445 ft 273 kts 244°
2026-05-05 01:17 14.61616 -90.59616 10122 ft 286 kts 227°
2026-05-05 01:17 14.60565 -90.61358 11164 ft 287 kts 255°
2026-05-05 01:17 14.60432 -90.63433 12028 ft 299 kts 281°
2026-05-05 01:18 14.60876 -90.65597 12674 ft 319 kts 281°
2026-05-05 01:18 14.61197 -90.67907 13224 ft 340 kts 278°
2026-05-05 01:18 14.61436 -90.70406 13751 ft 360 kts 276°
2026-05-05 01:18 14.61615 -90.73031 14347 ft 373 kts 275°
2026-05-05 01:19 14.61764 -90.75729 15047 ft 379 kts 274°
2026-05-05 01:19 14.61899 -90.78460 15811 ft 383 kts 274°
2026-05-05 01:19 14.62024 -90.81227 16531 ft 389 kts 274°
2026-05-05 01:19 14.62144 -90.84032 17242 ft 394 kts 273°
2026-05-05 01:20 14.62262 -90.86869 17922 ft 399 kts 273°
2026-05-05 01:20 14.62382 -90.89747 18583 ft 402 kts 273°
2026-05-05 01:20 14.62503 -90.92641 19174 ft 406 kts 273°
2026-05-05 01:20 14.62584 -90.94615 19582 ft 407 kts 274°
2026-05-05 01:21 14.62705 -90.97543 20192 ft 410 kts 274°
2026-05-05 01:21 14.62827 -91.00497 20786 ft 413 kts 274°
2026-05-05 01:21 14.62949 -91.03470 21384 ft 416 kts 274°
2026-05-05 01:21 14.63071 -91.06459 21961 ft 419 kts 274°
2026-05-05 01:22 14.63194 -91.09476 22481 ft 423 kts 274°
2026-05-05 01:22 14.63316 -91.12480 23044 ft 425 kts 274°
2026-05-05 01:22 14.63441 -91.15541 23560 ft 429 kts 274°
2026-05-05 01:22 14.63565 -91.18630 24003 ft 433 kts 274°
2026-05-05 01:23 14.63690 -91.21746 24451 ft 435 kts 274°
2026-05-05 01:23 14.63815 -91.24874 24893 ft 437 kts 274°
2026-05-05 01:23 14.63941 -91.28019 25319 ft 440 kts 274°
2026-05-05 01:23 14.64067 -91.31187 25760 ft 442 kts 274°
2026-05-05 01:24 14.64194 -91.34364 26194 ft 445 kts 274°
2026-05-05 01:24 14.64320 -91.37569 26616 ft 448 kts 274°
2026-05-05 01:24 14.64447 -91.40785 27054 ft 450 kts 274°
2026-05-05 01:24 14.64574 -91.44021 27492 ft 452 kts 274°
2026-05-05 01:25 14.64702 -91.47278 27913 ft 455 kts 274°
2026-05-05 01:25 14.64830 -91.50548 28329 ft 457 kts 274°
2026-05-05 01:25 14.64958 -91.53839 28663 ft 460 kts 274°
2026-05-05 01:25 14.65086 -91.57150 29088 ft 462 kts 274°
2026-05-05 01:26 14.65215 -91.60476 29498 ft 465 kts 274°
2026-05-05 01:26 14.65344 -91.63815 29912 ft 467 kts 274°
2026-05-05 01:26 14.65473 -91.67178 30277 ft 470 kts 274°
2026-05-05 01:26 14.65602 -91.70551 30681 ft 472 kts 274°
2026-05-05 01:27 14.65731 -91.73941 31048 ft 473 kts 273°
2026-05-05 01:27 14.65860 -91.77340 31436 ft 474 kts 273°
2026-05-05 01:27 14.65989 -91.80743 31887 ft 473 kts 273°
2026-05-05 01:27 14.66116 -91.84124 32413 ft 470 kts 273°
2026-05-05 01:28 14.66244 -91.87490 32963 ft 467 kts 272°
2026-05-05 01:28 14.66369 -91.90824 33531 ft 464 kts 272°
2026-05-05 01:28 14.66493 -91.94143 34071 ft 460 kts 272°
2026-05-05 01:28 14.66615 -91.97434 34513 ft 459 kts 272°
2026-05-05 01:29 14.66737 -92.00728 34908 ft 458 kts 272°
2026-05-05 01:29 14.66858 -92.04012 35334 ft 458 kts 272°
2026-05-05 01:29 14.66978 -92.07293 35723 ft 457 kts 272°
2026-05-05 01:29 14.67098 -92.10574 36100 ft 457 kts 272°
2026-05-05 01:30 14.67442 -92.13831 36493 ft 456 kts 283°
2026-05-05 01:30 14.68558 -92.16886 36905 ft 456 kts 296°
2026-05-05 01:30 14.70010 -92.19807 37267 ft 456 kts 296°
2026-05-05 01:30 14.71476 -92.22711 37687 ft 457 kts 296°
2026-05-05 01:31 14.72970 -92.25617 37927 ft 458 kts 297°
2026-05-05 01:31 14.74473 -92.28505 37924 ft 455 kts 297°
2026-05-05 01:31 14.77475 -92.34241 37925 ft 454 kts 297°
2026-05-05 01:32 14.80726 -92.39828 37929 ft 454 kts 302°
2026-05-05 01:32 14.84168 -92.45300 37925 ft 454 kts 301°
2026-05-05 01:33 14.87579 -92.50787 37921 ft 453 kts 301°
2026-05-05 01:33 14.90979 -92.56268 37923 ft 453 kts 301°
2026-05-05 01:34 14.94374 -92.61743 37927 ft 453 kts 301°
2026-05-05 01:34 14.97747 -92.67188 37914 ft 452 kts 301°
2026-05-05 01:35 15.01140 -92.72667 37912 ft 452 kts 301°
2026-05-05 01:35 15.04545 -92.78134 37912 ft 452 kts 301°
2026-05-05 01:36 15.07945 -92.83597 37907 ft 452 kts 301°
2026-05-05 01:36 15.11343 -92.89063 37905 ft 451 kts 301°
2026-05-05 01:37 15.14736 -92.94524 37907 ft 451 kts 301°
2026-05-05 01:37 15.18128 -92.99987 37904 ft 451 kts 301°
2026-05-05 01:38 15.21516 -93.05446 37902 ft 451 kts 301°
2026-05-05 01:38 15.24903 -93.10909 37904 ft 451 kts 301°
2026-05-05 01:39 15.28286 -93.16370 37902 ft 451 kts 301°
2026-05-05 01:39 15.31667 -93.21831 37905 ft 450 kts 301°
2026-05-05 01:40 15.35051 -93.27300 37906 ft 450 kts 301°
2026-05-05 01:40 15.38429 -93.32765 37909 ft 450 kts 301°
2026-05-05 01:41 15.41785 -93.38196 37909 ft 451 kts 301°
2026-05-05 01:41 15.45161 -93.43664 37907 ft 451 kts 301°
2026-05-05 01:42 15.48538 -93.49138 37911 ft 450 kts 301°
2026-05-05 01:42 15.51911 -93.54611 37905 ft 450 kts 301°
2026-05-05 01:43 15.55281 -93.60081 37905 ft 450 kts 301°
2026-05-05 01:43 15.58651 -93.65555 37905 ft 450 kts 301°
2026-05-05 01:44 15.62016 -93.71024 37903 ft 450 kts 301°
2026-05-05 01:44 15.65380 -93.76497 37903 ft 450 kts 301°
2026-05-05 01:45 15.68742 -93.81972 37897 ft 450 kts 301°
2026-05-05 01:45 15.72103 -93.87447 37901 ft 450 kts 301°
2026-05-05 01:46 15.75461 -93.92922 37898 ft 449 kts 301°
2026-05-05 01:46 15.78813 -93.98389 37898 ft 449 kts 301°
2026-05-05 01:47 15.82168 -94.03869 37895 ft 449 kts 301°
2026-05-05 01:47 15.85515 -94.09338 37891 ft 449 kts 301°
2026-05-05 01:48 15.88857 -94.14802 37892 ft 448 kts 301°
2026-05-05 01:48 15.92202 -94.20275 37890 ft 448 kts 301°
2026-05-05 01:49 15.95520 -94.25707 37890 ft 448 kts 301°
2026-05-05 01:49 15.98856 -94.31175 37893 ft 448 kts 301°
2026-05-05 01:50 16.02190 -94.36641 37892 ft 448 kts 301°
2026-05-05 01:50 16.05520 -94.42107 37893 ft 448 kts 301°
2026-05-05 01:51 16.08851 -94.47576 37889 ft 447 kts 301°
2026-05-05 01:51 16.12179 -94.53047 37890 ft 447 kts 301°
2026-05-05 01:52 16.15502 -94.58512 37888 ft 447 kts 301°
2026-05-05 01:52 16.18822 -94.63978 37891 ft 447 kts 301°
2026-05-05 01:53 16.22142 -94.69446 37892 ft 446 kts 301°
2026-05-05 01:53 16.25454 -94.74906 37891 ft 446 kts 301°
2026-05-05 01:54 16.28765 -94.80369 37891 ft 446 kts 301°
2026-05-05 01:54 16.32070 -94.85825 37888 ft 446 kts 301°
2026-05-05 01:55 16.35376 -94.91288 37887 ft 446 kts 301°
2026-05-05 01:55 16.38677 -94.96746 37890 ft 445 kts 301°
2026-05-05 01:56 16.41975 -95.02202 37883 ft 445 kts 301°
2026-05-05 01:56 16.45244 -95.07616 37883 ft 444 kts 301°
2026-05-05 01:57 16.48337 -95.13187 37883 ft 444 kts 299°
2026-05-05 01:57 16.51398 -95.18776 37882 ft 444 kts 299°
2026-05-05 01:58 16.54464 -95.24362 37872 ft 444 kts 299°
2026-05-05 01:58 16.57531 -95.29957 37891 ft 444 kts 299°
2026-05-05 01:59 16.60591 -95.35540 37887 ft 444 kts 299°
2026-05-05 01:59 16.63648 -95.41125 37897 ft 443 kts 299°
2026-05-05 02:00 16.66704 -95.46712 37893 ft 443 kts 299°
2026-05-05 02:00 16.69755 -95.52293 37892 ft 443 kts 299°
2026-05-05 02:01 16.72804 -95.57877 37897 ft 443 kts 299°
2026-05-05 02:01 16.75848 -95.63455 37897 ft 442 kts 299°
2026-05-05 02:02 16.78893 -95.69040 37903 ft 443 kts 299°
2026-05-05 02:02 16.81915 -95.74586 37896 ft 442 kts 299°
2026-05-05 02:03 16.84952 -95.80172 37915 ft 443 kts 299°
2026-05-05 02:03 16.87986 -95.85765 37909 ft 443 kts 299°
2026-05-05 02:04 16.91020 -95.91363 37909 ft 443 kts 299°
2026-05-05 02:04 16.94056 -95.96968 37908 ft 443 kts 299°
2026-05-05 02:05 16.97091 -96.02576 37906 ft 443 kts 299°
2026-05-05 02:05 17.00124 -96.08186 37904 ft 444 kts 299°
2026-05-05 02:06 17.03157 -96.13800 37912 ft 444 kts 299°
2026-05-05 02:06 17.06188 -96.19415 37916 ft 444 kts 299°
2026-05-05 02:07 17.09221 -96.25037 37908 ft 444 kts 299°
2026-05-05 02:07 17.12252 -96.30661 37916 ft 444 kts 299°
2026-05-05 02:08 17.15284 -96.36292 37919 ft 444 kts 299°
2026-05-05 02:08 17.18316 -96.41925 37923 ft 444 kts 299°
2026-05-05 02:09 17.21342 -96.47550 37945 ft 444 kts 298°
2026-05-05 02:09 17.24372 -96.53187 37962 ft 445 kts 298°
2026-05-05 02:10 17.26891 -96.57877 37961 ft 445 kts 298°
2026-05-05 02:10 17.29922 -96.63526 37951 ft 445 kts 298°
2026-05-05 02:11 17.33438 -96.70084 37928 ft 445 kts 298°
2026-05-05 02:11 17.35975 -96.74820 37890 ft 445 kts 298°
2026-05-05 02:12 17.40491 -96.83259 37890 ft 445 kts 298°
2026-05-05 02:13 17.43509 -96.88903 37892 ft 444 kts 298°
2026-05-05 02:13 17.46521 -96.94542 37889 ft 444 kts 298°
2026-05-05 02:14 17.49531 -97.00182 37890 ft 443 kts 298°
2026-05-05 02:14 17.52536 -97.05818 37856 ft 443 kts 299°
2026-05-05 02:15 17.55537 -97.11451 37883 ft 442 kts 299°
2026-05-05 02:15 17.58530 -97.17073 37889 ft 442 kts 299°
2026-05-05 02:15 17.60257 -97.19728 37868 ft 441 kts 312°
2026-05-05 02:16 17.62435 -97.21986 37887 ft 442 kts 314°
2026-05-05 02:16 17.66814 -97.26513 37892 ft 443 kts 315°
2026-05-05 02:17 17.71244 -97.31003 37890 ft 442 kts 315°
2026-05-05 02:17 17.75675 -97.35478 37878 ft 443 kts 315°
2026-05-05 02:18 17.80112 -97.39960 37885 ft 443 kts 315°
2026-05-05 02:18 17.84546 -97.44443 37878 ft 443 kts 315°
2026-05-05 02:19 17.88982 -97.48931 37880 ft 443 kts 315°
2026-05-05 02:19 17.93421 -97.53426 37875 ft 443 kts 315°
2026-05-05 02:20 17.97856 -97.57919 37866 ft 444 kts 315°
2026-05-05 02:20 18.02303 -97.62429 37862 ft 444 kts 315°
2026-05-05 02:21 18.06750 -97.66940 37858 ft 444 kts 315°
2026-05-05 02:21 18.11167 -97.71425 37841 ft 445 kts 315°
2026-05-05 02:22 18.15617 -97.75948 37848 ft 445 kts 315°
2026-05-05 02:22 18.20066 -97.80472 37835 ft 445 kts 315°
2026-05-05 02:23 18.24519 -97.85005 37812 ft 445 kts 315°
2026-05-05 02:23 18.28972 -97.89539 37824 ft 445 kts 315°
2026-05-05 02:24 18.33399 -97.94051 37271 ft 440 kts 315°
2026-05-05 02:24 18.35600 -97.96295 36639 ft 439 kts 315°
2026-05-05 02:24 18.37792 -97.98531 35922 ft 439 kts 315°
2026-05-05 02:24 18.39984 -98.00768 35214 ft 439 kts 315°
2026-05-05 02:25 18.42179 -98.03009 34494 ft 441 kts 315°
2026-05-05 02:25 18.44384 -98.05260 33758 ft 443 kts 315°
2026-05-05 02:25 18.46603 -98.07525 32919 ft 444 kts 315°
2026-05-05 02:25 18.48821 -98.09791 32135 ft 449 kts 315°
2026-05-05 02:26 18.51083 -98.12104 31332 ft 456 kts 316°
2026-05-05 02:26 18.53342 -98.14414 30544 ft 461 kts 316°
2026-05-05 02:26 18.55683 -98.16809 29681 ft 467 kts 317°
2026-05-05 02:26 18.58026 -98.19209 28889 ft 470 kts 317°
2026-05-05 02:27 18.60377 -98.21616 28260 ft 472 kts 317°
2026-05-05 02:27 18.62732 -98.24028 27659 ft 470 kts 317°
2026-05-05 02:27 18.65058 -98.26413 27023 ft 466 kts 317°
2026-05-05 02:27 18.67378 -98.28790 26399 ft 462 kts 317°
2026-05-05 02:28 18.69618 -98.31194 25745 ft 459 kts 311°
2026-05-05 02:28 18.71305 -98.33987 25176 ft 454 kts 295°
2026-05-05 02:28 18.72262 -98.37189 24726 ft 456 kts 284°
2026-05-05 02:28 18.72943 -98.40453 24241 ft 454 kts 283°
2026-05-05 02:29 18.73583 -98.43710 23730 ft 452 kts 282°
2026-05-05 02:29 18.74199 -98.46954 23140 ft 450 kts 282°
2026-05-05 02:29 18.74796 -98.50180 22348 ft 445 kts 282°
2026-05-05 02:29 18.75373 -98.53325 21608 ft 441 kts 282°
2026-05-05 02:30 18.75952 -98.56499 20862 ft 440 kts 282°
2026-05-05 02:30 18.76532 -98.59682 20580 ft 430 kts 282°
2026-05-05 02:30 18.77086 -98.62730 20473 ft 422 kts 282°
2026-05-05 02:30 18.77630 -98.65720 20263 ft 410 kts 282°
2026-05-05 02:31 18.78164 -98.68660 19814 ft 405 kts 282°
2026-05-05 02:31 18.78692 -98.71570 19341 ft 402 kts 282°
2026-05-05 02:31 18.79216 -98.74456 18895 ft 399 kts 282°
2026-05-05 02:31 18.79735 -98.77323 18456 ft 396 kts 283°
2026-05-05 02:32 18.80250 -98.80167 18003 ft 393 kts 283°
2026-05-05 02:32 18.80821 -98.82951 17753 ft 383 kts 285°
2026-05-05 02:32 18.81396 -98.85648 17570 ft 372 kts 284°
2026-05-05 02:32 18.81955 -98.88292 17262 ft 366 kts 284°
2026-05-05 02:33 18.82499 -98.90879 17068 ft 356 kts 284°
2026-05-05 02:33 18.83028 -98.93398 16928 ft 346 kts 284°
2026-05-05 02:33 18.83541 -98.95841 16803 ft 336 kts 284°
2026-05-05 02:33 18.84041 -98.98222 16690 ft 328 kts 284°
2026-05-05 02:34 18.84487 -99.00543 16635 ft 319 kts 282°
2026-05-05 02:34 18.84882 -99.02820 16583 ft 312 kts 282°
2026-05-05 02:34 18.85277 -99.05067 16552 ft 311 kts 282°
2026-05-05 02:34 18.85673 -99.07309 16559 ft 311 kts 282°
2026-05-05 02:35 18.86072 -99.09552 16551 ft 313 kts 283°
2026-05-05 02:35 18.86857 -99.11724 16542 ft 323 kts 308°
2026-05-05 02:35 18.88539 -99.13303 16541 ft 331 kts 335°
2026-05-05 02:35 18.90785 -99.13916 16549 ft 341 kts 359°
2026-05-05 02:36 18.93067 -99.13638 16593 ft 323 kts 18°
2026-05-05 02:36 18.95067 -99.12687 16607 ft 308 kts 27°
2026-05-05 02:36 18.96959 -99.11720 16610 ft 295 kts 26°
2026-05-05 02:36 18.98801 -99.10784 16240 ft 292 kts 26°
2026-05-05 02:37 19.00603 -99.09868 15933 ft 283 kts 26°
2026-05-05 02:37 19.02346 -99.08979 15624 ft 274 kts 26°
2026-05-05 02:37 19.04031 -99.08120 15336 ft 264 kts 26°
2026-05-05 02:37 19.05659 -99.07292 15064 ft 258 kts 26°
2026-05-05 02:38 19.07294 -99.06468 14777 ft 262 kts 26°
2026-05-05 02:38 19.08829 -99.05697 14515 ft 263 kts 26°
2026-05-05 02:38 19.10478 -99.04867 14277 ft 262 kts 26°
2026-05-05 02:38 19.12126 -99.04038 14101 ft 262 kts 26°
2026-05-05 02:39 19.13770 -99.03211 13947 ft 262 kts 26°
2026-05-05 02:39 19.15415 -99.02388 13819 ft 262 kts 23°
2026-05-05 02:39 19.17167 -99.01992 13547 ft 260 kts 356°
2026-05-05 02:39 19.18863 -99.02523 13286 ft 259 kts 329°
2026-05-05 02:40 19.20262 -99.03736 13075 ft 263 kts 319°
2026-05-05 02:40 19.21615 -99.05046 12839 ft 264 kts 318°
2026-05-05 02:40 19.22971 -99.06369 12579 ft 266 kts 318°
2026-05-05 02:40 19.24220 -99.07803 12281 ft 267 kts 301°
2026-05-05 02:41 19.24991 -99.09591 11992 ft 267 kts 293°
2026-05-05 02:41 19.25724 -99.11391 11713 ft 266 kts 294°
2026-05-05 02:41 19.26451 -99.13187 11446 ft 266 kts 293°
2026-05-05 02:41 19.27179 -99.14994 11179 ft 267 kts 293°
2026-05-05 02:42 19.28139 -99.16660 10871 ft 268 kts 317°
2026-05-05 02:42 19.29760 -99.17557 10535 ft 262 kts 349°
2026-05-05 02:42 19.31545 -99.17745 10212 ft 255 kts 355°
2026-05-05 02:42 19.33293 -99.17914 9824 ft 250 kts 354°
2026-05-05 02:43 19.34960 -99.18084 9530 ft 230 kts 355°
2026-05-05 02:43 19.36432 -99.17870 9396 ft 209 kts 24°
2026-05-05 02:43 19.37545 -99.16938 9286 ft 197 kts 51°
2026-05-05 02:43 19.38345 -99.15812 9178 ft 188 kts 57°
2026-05-05 02:44 19.39072 -99.14687 9024 ft 184 kts 59°
2026-05-05 02:44 19.39774 -99.13558 8775 ft 183 kts 59°
2026-05-05 02:44 19.40462 -99.12425 8481 ft 182 kts 60°
2026-05-05 02:44 19.41132 -99.11296 8108 ft 180 kts 60°
2026-05-05 02:45 19.41803 -99.10197 7811 ft 175 kts 58°
2026-05-05 02:45 19.42400 -99.09127 7514 ft 166 kts 64°
2026-05-05 02:45 19.42996 -99.08065 7329 ft 163 kts 63°
2026-05-05 02:45 19.43503 -99.07134 7304 ft 108 kts 59°